Brier Island, Nova Scotia

5:48 AM ADT on July 25, 2017 (GMT -0300)
Brier Island

Weather History for CWVU - January, 2013

Change the Weather History Date:

Saturday, January 19, 2013

  Actual Average Record
Temperature  
Mean Temperature 30 °F -  
Max Temperature 43 °F - - ()
Min Temperature 16 °F - - ()
Degree Days  
Heating Degree Days 36    
Moisture  
Dew Point 28 °F    
Average Humidity 79    
Maximum Humidity 97    
Minimum Humidity 41    
Precipitation  
Precipitation 0.16 in - - ()
Sea Level Pressure  
Sea Level Pressure 30.19 in    
Wind  
Wind Speed 17 mph ()    
Max Wind Speed 29 mph    
Max Gust Speed 41 mph    
T = Trace of Precipitation, MM = Missing Value Source: Averaged Metar Reports

Daily Weather History Graph

Daily Weather History Graph

Search for Another Location

Airport or City:

Trip Planner

Search our weather history database for the weather conditions in past years. The results will help you decide how hot, cold, wet, or windy it might be!

Date:

Astronomy

Jan. 19, 2013 Rise Set
Actual Time 7:55 AM AST 5:17 PM AST
Civil Twilight 7:23 AM AST 5:49 PM AST
Nautical Twilight 6:47 AM AST 6:25 PM AST
Astronomical Twilight 6:13 AM AST 6:59 PM AST
Moon 11:44 AM AST (1/19) 1:22 AM AST (1/19)
Length of Visible Light 10h 26m
Length of Day
9h 22m
First Quarter, 56% of the Moon is Illuminated
Jan 19
First Quarter
Jan 27
Full
Feb 3
Last Quarter
Feb 10
New
Feb 17
First Quarter

Hourly Weather History & Observations

Time (AST) Temp. Windchill Dew Point Humidity Pressure Visibility Wind Dir Wind Speed Gust Speed Precip Events Conditions
12:00 AM 23.2 °F 5.9 °F 12.2 °F 63% 30.38 in - West 28.8 mph 36.8 mph N/A   Unknown
1:00 AM 23.4 °F 6.8 °F 12.4 °F 63% 30.38 in - West 26.5 mph - N/A   Unknown
2:00 AM 24 °F - 10 °F 41% 30.39 in - West 25.3 mph - -  
2:00 AM 23.9 °F 7.8 °F 9.9 °F 55% 30.39 in - West 25.3 mph - N/A   Unknown
3:00 AM 24.6 °F 9.7 °F 11.8 °F 58% 30.40 in - West 21.9 mph 28.8 mph N/A   Unknown
4:00 AM 25.7 °F 11.9 °F 12.0 °F 56% 30.39 in - WSW 19.6 mph 27.6 mph N/A   Unknown
5:00 AM 26.6 °F 16.8 °F 13.8 °F 59% 30.37 in - WSW 10.4 mph - N/A   Unknown
6:00 AM 25.9 °F 20.3 °F 18.1 °F 73% 30.33 in - South 4.6 mph - N/A   Unknown
7:00 AM 25.7 °F 20.1 °F 23.4 °F 91% 30.31 in - SSE 4.6 mph - N/A   Unknown
8:00 AM 28 °F - 27 °F 94% 30.27 in - South 12.7 mph - -  
8:00 AM 28.2 °F 17.7 °F 27.0 °F 95% 30.27 in - South 12.7 mph 19.6 mph N/A   Unknown
9:00 AM 30.7 °F 20.0 °F 26.6 °F 85% 30.24 in - South 15.0 mph 26.5 mph N/A   Unknown
10:00 AM 31.3 °F 19.9 °F 26.4 °F 82% 30.22 in - South 17.3 mph 27.6 mph N/A   Unknown
11:00 AM 34.2 °F 23.0 °F 31.3 °F 89% 30.18 in - South 19.6 mph 33.4 mph 0.02 in   Unknown
12:00 PM 36.3 °F 25.8 °F 35.4 °F 97% 30.14 in - SSW 19.6 mph 31.1 mph 0.05 in   Unknown
1:00 PM 38.5 °F 27.8 °F 36.0 °F 91% 30.09 in - SSW 23.0 mph 41.4 mph 0.03 in   Unknown
2:00 PM 40 °F - 37 °F 85% 30.06 in - SW 21.9 mph - -  
2:00 PM 39.7 °F 29.7 °F 37.0 °F 90% 30.06 in - SW 21.9 mph 35.7 mph 0.04 in   Unknown
3:00 PM 40.5 °F 30.7 °F 37.9 °F 91% 30.04 in - SW 21.9 mph 32.2 mph 0.02 in   Unknown
4:00 PM 42.3 °F 33.6 °F 37.4 °F 83% 30.03 in - SW 19.6 mph 28.8 mph 0.02 in   Unknown
5:00 PM 42.8 °F 34.0 °F 36.5 °F 78% 30.02 in - SW 20.7 mph 29.9 mph N/A   Unknown
6:00 PM 43.5 °F 35.8 °F 37.4 °F 79% 30.02 in - SW 17.3 mph 26.5 mph N/A   Unknown
7:00 PM 40.6 °F 30.7 °F 37.6 °F 89% 30.03 in - West 23.0 mph 28.8 mph 0.01 in   Unknown
8:00 PM 40 °F - 37 °F 83% 30.04 in - WSW 12.7 mph - -  
8:00 PM 39.6 °F 32.1 °F 36.7 °F 89% 30.04 in - WSW 12.7 mph - 0.01 in   Unknown
9:00 PM 39.6 °F - 36.3 °F 88% 30.04 in - SW 2.3 mph - N/A   Unknown
10:00 PM 42.3 °F 35.5 °F 35.6 °F 77% 30.04 in - West 12.7 mph - N/A   Unknown
11:00 PM 41.5 °F 35.9 °F 35.1 °F 78% 30.04 in - West 9.2 mph - N/A   Unknown